EW9539 Weather Reports


time (UTC)temp
F
wind
direction
speed
knots
gust
knots
rain 1hr
in
rain 24hr
in
rain mn
in
humidity
%
barometer
mb
20260510060009 56 309 0.0 0.9 0.00 0.09 0.00 82 1010.2
20260510054506 56 309 0.0 1.7 0.00 0.09 0.00 82 1010.1
20260510053012 55 292 0.0 1.7 0.00 0.09 0.00 83 1010.2
20260510051502 54 302 0.0 0.9 0.00 0.09 0.00 84 1010.3
20260510044607 54 315 0.0 0.0 0.00 0.09 0.00 85 1010.2
20260510043057 53 315 0.0 0.0 0.00 0.09 0.00 86 1010.2
20260510041554 53 315 0.0 0.0 0.00 0.09 0.00 85 1010.1
20260510040052 53 315 0.0 0.0 0.00 0.09 0.00 85 1009.9
20260510034612 54 315 0.0 0.0 0.00 0.09 0.09 84 1009.9
20260510033057 55 315 0.0 0.0 0.00 0.09 0.09 82 1009.6
20260510031551 57 315 0.0 0.0 0.00 0.09 0.09 78 1009.4
20260510030053 57 315 0.0 1.7 0.00 0.09 0.09 80 1009.3
20260510024548 55 288 0.0 1.7 0.00 0.09 0.09 84 1009.3
20260510023048 55 269 0.0 0.0 0.00 0.09 0.09 83 1009.3
20260510021558 56 269 0.0 0.0 0.00 0.09 0.09 81 1009.1
20260510020047 57 269 0.0 0.0 0.00 0.09 0.09 77 1009.0
20260510014551 59 269 0.0 0.0 0.00 0.09 0.09 74 1008.8
20260510013048 59 269 0.0 1.7 0.00 0.09 0.09 73 1008.4
20260510011546 60 269 0.0 0.9 0.00 0.09 0.09 71 1008.2
20260510010144 61 269 0.0 2.6 0.00 0.09 0.09 71 1008.2
20260510004544 61 284 0.0 1.7 0.00 0.09 0.09 69 1008.0
20260510003058 62 284 0.0 0.9 0.00 0.09 0.09 67 1007.9
20260510001543 63 284 0.0 2.6 0.00 0.09 0.09 65 1007.6
20260510000046 64 61 0.0 1.7 0.00 0.09 0.09 64 1007.4
20260509234541 65 42 0.0 1.7 0.00 0.09 0.09 61 1007.3
20260509233041 66 355 0.0 3.5 0.00 0.09 0.09 60 1007.3
20260509231541 66 25 0.0 3.5 0.00 0.09 0.09 59 1007.1
20260509230039 67 355 1.7 7.8 0.00 0.09 0.09 57 1007.2
20260509224538 67 68 0.9 2.6 0.00 0.09 0.09 58 1007.4
20260509223038 68 40 1.7 5.2 0.00 0.09 0.09 58 1007.6
20260509221536 68 252 0.0 5.2 0.00 0.09 0.09 60 1007.6
20260509220040 69 347 0.9 3.5 0.00 0.09 0.09 56 1007.7
20260509214533 67 40 1.7 4.3 0.00 0.09 0.09 58 1007.7
20260509213033 70 27 0.9 5.2 0.00 0.09 0.09 57 1007.6
20260509211534 70 343 1.7 3.5 0.00 0.09 0.09 57 1007.7
20260509210032 67 347 0.9 4.3 0.00 0.09 0.09 58 1007.6
20260509204531 69 45 0.9 7.0 0.00 0.09 0.09 57 1007.7
20260509203036 68 335 1.7 4.3 0.00 0.09 0.09 58 1007.8
20260509201529 66 82 0.9 8.7 0.00 0.09 0.09 61 1008.0
20260509200036 68 24 0.9 2.6 0.00 0.09 0.09 60 1008.0
20260509194539 69 336 1.7 3.5 0.00 0.09 0.09 60 1008.2
20260509193025 68 22 1.7 5.2 0.00 0.09 0.09 62 1008.2
20260509191521 67 338 0.9 3.5 0.00 0.09 0.09 64 1008.3
20260509190017 66 34 0.9 2.6 0.00 0.09 0.09 69 1008.4
20260509184512 62 41 0.0 2.6 0.00 0.09 0.09 75 1008.5
20260509183014 61 36 0.0 2.6 0.00 0.09 0.09 75 1008.4
20260509181512 62 47 0.0 2.6 0.00 0.09 0.09 78 1008.4
20260509180007 60 58 0.9 2.6 0.00 0.09 0.09 80 1008.5
20260509174511 59 50 0.0 1.7 0.00 0.09 0.09 82 1008.6
20260509173005 59 58 0.0 1.7 0.00 0.09 0.09 83 1008.6
20260509171502 58 48 0.0 1.7 0.00 0.09 0.09 83 1008.8
20260509170001 57 48 0.0 0.9 0.00 0.09 0.09 84 1009.0
20260509164602 58 48 0.0 2.6 0.00 0.09 0.09 82 1009.0
20260509163105 59 54 0.0 1.7 0.00 0.09 0.09 82 1008.8
20260509161603 58 269 0.0 1.7 0.00 0.09 0.09 82 1008.8
20260509160055 57 269 0.0 1.7 0.00 0.09 0.09 84 1008.9
20260509154554 56 269 0.0 2.6 0.01 0.09 0.09 83 1009.0
20260509153056 56 263 0.0 2.6 0.01 0.09 0.09 83 1009.2
20260509151556 56 199 0.0 0.9 0.01 0.09 0.09 86 1009.2
20260509150049 55 233 0.0 0.0 0.01 0.09 0.09 86 1009.4
20260509144548 55 163 0.0 1.7 0.00 0.08 0.08 85 1009.4
20260509143057 55 91 0.0 0.0 0.00 0.08 0.08 87 1009.4
20260509141552 54 91 0.9 1.7 0.01 0.08 0.08 86 1009.2
20260509140057 54 91 0.0 0.9 0.01 0.08 0.08 88 1009.3
20260509134544 54 91 0.0 0.9 0.01 0.08 0.08 88 1009.4
20260509133043 54 91 0.0 0.0 0.01 0.08 0.08 89 1009.6
20260509131542 54 91 0.0 0.0 0.01 0.07 0.07 89 1009.6
20260509130041 53 91 0.0 0.9 0.02 0.07 0.07 89 1009.6
20260509124539 53 91 0.0 0.9 0.02 0.07 0.07 89 1009.8
20260509123046 52 265 0.0 1.7 0.03 0.07 0.07 89 1009.8
20260509121535 52 265 0.0 0.9 0.02 0.06 0.06 89 1010.0
20260509120037 52 265 0.0 0.9 0.01 0.05 0.05 89 1010.1
20260509114534 52 265 0.0 0.0 0.01 0.05 0.05 89 1010.1
20260509113032 52 265 0.0 0.9 0.01 0.04 0.04 88 1010.1
20260509111532 52 265 0.0 0.9 0.01 0.04 0.04 88 1009.8
20260509110030 52 265 0.0 0.0 0.01 0.04 0.04 88 1009.7
20260509104528 52 265 1.7 3.5 0.01 0.04 0.04 87 1009.6
20260509103027 52 252 0.0 1.7 0.01 0.03 0.03 87 1009.4
20260509101527 51 252 0.0 1.7 0.02 0.03 0.03 87 1009.6
20260509100025 52 252 0.0 0.9 0.02 0.03 0.03 86 1009.8
20260509094523 52 252 0.0 1.7 0.03 0.03 0.03 85 1009.9
20260509093022 53 264 0.0 2.6 0.02 0.02 0.02 83 1010.2
20260509091519 53 61 0.0 1.7 0.01 0.01 0.01 82 1010.2
20260509090018 54 61 0.0 0.0 0.01 0.01 0.01 81 1010.2
20260509084524 54 41 0.0 1.7 0.00 0.00 0.00 79 1010.4
20260509083018 55 28 0.0 3.5 0.00 0.00 0.00 75 1010.2
20260509081517 56 22 0.9 5.2 0.00 0.00 0.00 70 1010.4
20260509080016 57 46 0.0 4.3 0.00 0.00 0.00 67 1010.1
20260509074512 57 25 0.9 2.6 0.00 0.00 0.00 67 1009.7
20260509073010 56 337 0.0 1.7 0.00 0.00 0.00 68 1009.1
20260509071510 56 55 0.0 1.7 0.00 0.00 0.00 69 1009.0
20260509070006 55 340 0.0 2.6 0.00 0.00 0.00 71 1009.1
20260509064505 54 334 0.0 0.0 0.00 0.00 0.00 78 1009.0
20260509063004 53 334 0.0 0.0 0.00 0.00 0.00 81 1009.0
20260509061501 54 334 0.0 0.0 0.00 0.00 0.00 80 1009.0